GW1900 Weather Reports


time (UTC)temp
C
wind
direction
speed
KPH
gust
KPH
rain 1hr
cm
rain 24hr
cm
rain mn
cm
humidity
%
barometer
mb
20260906121606 20 0 0.0 0.0 0.00 0.00 0.00 90 1018.9
20260906121034 20 0 0.0 0.0 0.00 0.00 0.00 90 1018.9
20260906120534 20 0 0.0 0.0 0.00 0.00 0.00 90 1018.8
20260906120108 20 0 0.0 0.0 0.00 0.00 0.00 89 1018.7
20260906115536 20 0 0.0 1.6 0.00 0.00 0.00 89 1018.5
20260906115034 20 0 0.0 1.6 0.00 0.00 0.00 89 1018.5
20260906114603 20 0 0.0 1.6 0.00 0.00 0.00 89 1018.4
20260906114034 20 0 0.0 3.2 0.00 0.00 0.00 89 1018.3
20260906113534 20 0 0.0 3.2 0.00 0.00 0.00 89 1018.2
20260906113052 20 9 0.0 0.0 0.00 0.00 0.00 89 1018.3
20260906112533 20 0 0.0 0.0 0.00 0.00 0.00 89 1018.2
20260906112035 20 0 0.0 0.0 0.00 0.00 0.00 89 1018.1
20260906111625 20 0 0.0 0.0 0.00 0.00 0.00 89 1018.0
20260906111032 20 0 0.0 0.0 0.00 0.00 0.00 89 1018.1
20260906110536 20 0 0.0 1.6 0.00 0.00 0.00 89 1018.0
20260906110057 20 0 0.0 1.6 0.00 0.00 0.00 89 1018.0
20260906105536 20 0 0.0 1.6 0.00 0.00 0.00 89 1017.8
20260906105034 20 96 0.0 3.2 0.00 0.00 0.00 89 1017.7
20260906104555 20 0 0.0 3.2 0.00 0.00 0.00 89 1017.6
20260906104037 20 0 0.0 6.4 0.00 0.00 0.00 89 1017.6
20260906103533 20 0 0.0 6.4 0.00 0.00 0.00 88 1017.6
20260906103100 20 0 0.0 6.4 0.00 0.00 0.00 88 1017.5
20260906102533 20 0 0.0 6.4 0.00 0.00 0.00 88 1017.6
20260906102032 20 0 0.0 0.0 0.00 0.00 0.00 88 1017.6
20260906101601 20 0 0.0 0.0 0.00 0.00 0.00 88 1017.5
20260906101033 20 0 0.0 0.0 0.00 0.00 0.00 88 1017.5
20260906100535 20 0 0.0 4.8 0.00 0.00 0.00 88 1017.5
20260906100058 20 0 0.0 4.8 0.00 0.00 0.00 88 1017.5
20260906095536 20 0 0.0 4.8 0.00 0.00 0.00 88 1017.4
20260906095040 20 0 0.0 3.2 0.00 0.00 0.00 88 1017.3
20260906094555 21 0 0.0 4.8 0.00 0.00 0.00 88 1017.3
20260906094033 21 0 0.0 6.4 0.00 0.00 0.00 88 1017.3
20260906093533 21 50 0.0 6.4 0.00 0.00 0.00 88 1017.3
20260906093106 21 0 1.6 6.4 0.00 0.00 0.00 88 1017.4
20260906092534 21 0 0.0 4.8 0.00 0.00 0.00 88 1017.4
20260906092035 21 0 0.0 4.8 0.00 0.00 0.00 87 1017.3
20260906091600 21 0 0.0 3.2 0.00 0.00 0.00 87 1017.3
20260906091034 21 0 0.0 1.6 0.00 0.00 0.00 87 1017.2
20260906090538 21 0 0.0 1.6 0.00 0.00 0.00 87 1017.2
20260906090111 21 0 0.0 3.2 0.00 0.00 0.00 87 1017.2
20260906085535 21 0 0.0 3.2 0.00 0.00 0.00 87 1017.1
20260906085034 21 0 0.0 1.6 0.00 0.00 0.00 87 1017.2
20260906084611 21 0 0.0 6.4 0.00 0.00 0.00 87 1017.2
20260906084034 21 297 0.0 6.4 0.00 0.00 0.00 86 1017.1
20260906083534 21 0 0.0 6.4 0.00 0.00 0.00 86 1017.0
20260906083100 21 47 0.0 4.8 0.00 0.00 0.00 86 1017.1
20260906082533 21 0 0.0 3.2 0.00 0.00 0.00 86 1017.0
20260906082035 21 0 0.0 6.4 0.00 0.00 0.00 85 1017.1
20260906081606 21 32 0.0 6.4 0.00 0.00 0.00 85 1017.2
20260906081035 21 67 0.0 6.4 0.00 0.00 0.00 85 1017.1
20260906080535 21 0 0.0 0.0 0.00 0.00 0.00 85 1017.2
20260906080142 21 0 0.0 0.0 0.00 0.00 0.00 85 1017.3
20260906075533 21 0 0.0 0.0 0.00 0.00 0.00 84 1017.4
20260906075034 22 0 0.0 0.0 0.00 0.00 0.00 84 1017.3
20260906074601 22 0 0.0 3.2 0.00 0.00 0.00 84 1017.3
20260906074033 22 0 0.0 3.2 0.00 0.00 0.00 84 1017.4
20260906073536 22 0 0.0 4.8 0.00 0.00 0.00 84 1017.4
20260906073107 22 0 0.0 4.8 0.00 0.00 0.00 84 1017.4
20260906072534 22 21 1.6 4.8 0.00 0.00 0.00 83 1017.4
20260906072034 22 42 0.0 4.8 0.00 0.00 0.00 83 1017.4
20260906071558 22 0 0.0 4.8 0.00 0.00 0.00 83 1017.3
20260906071034 22 47 0.0 4.8 0.00 0.00 0.00 83 1017.4
20260906070536 22 360 0.0 4.8 0.00 0.00 0.00 83 1017.5
20260906070127 22 53 0.0 4.8 0.00 0.00 0.00 83 1017.6
20260906065536 22 0 0.0 4.8 0.00 0.00 0.00 83 1017.5
20260906065034 22 40 0.0 4.8 0.00 0.00 0.00 83 1017.5
20260906064552 22 0 0.0 4.8 0.00 0.00 0.00 83 1017.6
20260906064034 22 99 0.0 4.8 0.00 0.00 0.00 83 1017.6
20260906063533 22 0 0.0 4.8 0.00 0.00 0.00 83 1017.6
20260906063104 22 0 0.0 8.0 0.00 0.00 0.00 83 1017.6
20260906062535 22 61 1.6 8.0 0.00 0.00 0.00 83 1017.6
20260906062034 22 40 1.6 8.0 0.00 0.00 0.00 83 1017.6
20260906061634 22 49 1.6 6.4 0.00 0.00 0.00 83 1017.6
20260906061034 22 46 1.6 6.4 0.00 0.00 0.00 83 1017.7
20260906060534 22 35 0.0 6.4 0.00 0.00 0.00 83 1017.6
20260906060059 22 0 0.0 6.4 0.00 0.00 0.00 83 1017.5
20260906055534 22 0 0.0 4.8 0.00 0.00 0.00 83 1017.4
20260906055034 22 18 0.0 12.9 0.00 0.00 0.00 83 1017.4
20260906054604 22 0 1.6 12.9 0.00 0.00 0.00 83 1017.3
20260906054035 22 45 3.2 6.4 0.00 0.00 0.00 82 1017.3
20260906053534 22 52 1.6 9.7 0.00 0.00 0.00 82 1017.4
20260906053101 22 31 1.6 9.7 0.00 0.00 0.00 82 1017.3
20260906052534 22 45 1.6 8.0 0.00 0.00 0.00 82 1017.2
20260906052034 22 93 1.6 8.0 0.00 0.00 0.00 81 1017.2
20260906051557 22 44 3.2 9.7 0.00 0.00 0.00 81 1017.2
20260906051036 22 57 3.2 12.9 0.00 0.00 0.00 81 1017.2
20260906050535 22 55 1.6 12.9 0.00 0.00 0.00 81 1017.2
20260906050112 22 68 1.6 11.3 0.00 0.00 0.00 81 1017.2
20260906045536 22 51 1.6 6.4 0.00 0.00 0.00 81 1017.2
20260906045035 23 0 1.6 9.7 0.00 0.00 0.00 81 1017.1
20260906044603 23 83 1.6 12.9 0.00 0.00 0.00 81 1016.9
20260906044033 23 339 4.8 12.9 0.00 0.00 0.00 81 1016.9
20260906043533 23 42 3.2 12.9 0.00 0.00 0.00 81 1016.7
20260906043111 23 0 1.6 6.4 0.00 0.00 0.00 81 1016.7
20260906042534 23 63 0.0 9.7 0.00 0.00 0.00 81 1016.6
20260906042034 23 68 1.6 9.7 0.00 0.00 0.00 81 1016.6
20260906041558 23 74 3.2 9.7 0.00 0.00 0.00 81 1016.6
20260906041034 23 132 1.6 9.7 0.00 0.00 0.00 81 1016.5
20260906040535 23 88 3.2 9.7 0.00 0.00 0.00 81 1016.5
20260906040114 23 52 3.2 12.9 0.00 0.00 0.00 81 1016.5
20260906035534 23 61 1.6 12.9 0.00 0.00 0.00 81 1016.3
20260906035034 23 34 1.6 16.1 0.00 0.00 0.00 80 1016.3
20260906034601 23 52 1.6 16.1 0.00 0.00 0.00 81 1016.4
20260906034033 23 88 4.8 11.3 0.00 0.00 0.00 80 1016.3
20260906033534 22 98 3.2 8.0 0.00 0.00 0.00 81 1016.2
20260906033101 22 59 1.6 11.3 0.00 0.00 0.00 81 1016.2
20260906032539 22 29 4.8 12.9 0.00 0.00 0.00 81 1016.2
20260906032032 22 48 3.2 14.5 0.00 0.00 0.00 81 1016.2
20260906031606 22 97 3.2 14.5 0.00 0.00 0.00 81 1016.2
20260906031032 22 42 3.2 11.3 0.00 0.00 0.00 81 1016.3
20260906030533 22 324 3.2 9.7 0.00 0.00 0.00 81 1016.3
20260906030110 22 63 3.2 9.7 0.00 0.00 0.00 81 1016.3
20260906025533 22 355 4.8 16.1 0.00 0.00 0.00 81 1016.2
20260906025033 22 67 3.2 16.1 0.00 0.00 0.00 81 1016.2
20260906024602 22 88 1.6 14.5 0.00 0.00 0.00 81 1016.2
20260906024033 22 85 4.8 14.5 0.00 0.00 0.00 81 1016.2
20260906023533 22 57 4.8 16.1 0.00 0.00 0.00 81 1016.2
20260906023127 22 9 1.6 16.1 0.00 0.00 0.00 81 1016.3
20260906022532 22 55 3.2 16.1 0.00 0.00 0.00 81 1016.3
20260906022032 22 128 6.4 16.1 0.00 0.00 0.00 81 1016.2
20260906021556 22 16 3.2 19.3 0.00 0.00 0.00 81 1016.3
20260906021035 22 44 6.4 19.3 0.00 0.00 0.00 81 1016.4
20260906020533 22 70 4.8 22.5 0.00 0.00 0.00 81 1016.3
20260906020108 22 49 4.8 22.5 0.00 0.00 0.00 81 1016.2
20260906015532 22 73 6.4 20.9 0.00 0.00 0.00 81 1016.2
20260906015036 22 86 6.4 20.9 0.00 0.00 0.00 81 1016.2
20260906014626 22 10 1.6 12.9 0.00 0.00 0.00 81 1016.3
20260906014034 22 56 3.2 19.3 0.00 0.00 0.00 80 1016.3
20260906013534 22 49 3.2 19.3 0.00 0.00 0.00 80 1016.2
20260906013101 22 34 8.0 19.3 0.00 0.00 0.00 80 1016.2
20260906012535 22 74 4.8 14.5 0.00 0.00 0.00 80 1016.1
20260906012032 22 31 3.2 14.5 0.00 0.00 0.00 80 1016.2
20260906011559 22 42 1.6 11.3 0.00 0.00 0.00 80 1016.1
20260906011036 22 355 3.2 11.3 0.00 0.00 0.00 80 1016.2
20260906010535 22 72 0.0 16.1 0.00 0.00 0.00 80 1016.2
20260906010101 22 91 6.4 17.7 0.00 0.00 0.00 80 1016.2
20260906005532 23 15 3.2 17.7 0.00 0.00 0.00 80 1016.2
20260906005035 23 119 4.8 17.7 0.00 0.00 0.00 80 1016.2
20260906004608 23 59 3.2 14.5 0.00 0.00 0.00 80 1016.2
20260906004034 23 77 4.8 14.5 0.00 0.00 0.00 79 1016.1
20260906003534 23 53 3.2 19.3 0.00 0.00 0.00 79 1016.0
20260906003059 23 34 3.2 19.3 0.00 0.00 0.00 79 1015.9
20260906002533 23 95 4.8 16.1 0.00 0.00 0.00 79 1015.9
20260906002035 23 0 3.2 16.1 0.00 0.00 0.00 78 1015.7
20260906001601 24 321 3.2 14.5 0.00 0.00 0.00 78 1015.7
20260906001037 24 63 4.8 19.3 0.00 0.00 0.00 77 1015.5
20260906000533 25 84 3.2 19.3 0.00 0.00 0.00 76 1015.4
20260906000109 25 5 6.4 19.3 0.00 0.00 0.00 76 1015.4
20260905235535 25 30 4.8 20.9 0.00 0.00 0.00 76 1015.2
20260905235034 25 52 6.4 20.9 0.00 0.00 0.00 75 1015.2
20260905234557 25 57 8.0 19.3 0.00 0.00 0.00 75 1015.2
20260905234035 26 40 3.2 12.9 0.00 0.00 0.00 74 1015.2
20260905233534 26 32 3.2 16.1 0.00 0.00 0.00 74 1015.2
20260905233058 26 186 6.4 16.1 0.00 0.00 0.00 74 1015.1
20260905232534 26 0 3.2 14.5 0.00 0.00 0.00 74 1015.2
20260905232033 26 82 3.2 12.9 0.00 0.00 0.00 73 1015.3
20260905231602 26 134 3.2 17.7 0.00 0.00 0.00 73 1015.1
20260905231033 26 81 3.2 17.7 0.00 0.00 0.00 73 1015.0
20260905230532 26 89 3.2 14.5 0.00 0.00 0.00 72 1015.0
20260905230101 27 78 3.2 12.9 0.00 0.00 0.00 72 1014.9
20260905225535 27 69 3.2 12.9 0.00 0.00 0.00 71 1014.9
20260905225035 27 29 3.2 12.9 0.00 0.00 0.00 71 1014.7
20260905224602 27 333 4.8 12.9 0.00 0.00 0.00 70 1014.6
20260905224035 27 59 3.2 12.9 0.00 0.00 0.00 70 1014.6
20260905223534 27 110 4.8 12.9 0.00 0.00 0.00 71 1014.8
20260905223125 27 86 4.8 12.9 0.00 0.00 0.00 71 1014.6
20260905222535 27 62 3.2 8.0 0.00 0.00 0.00 71 1014.6
20260905222035 27 41 1.6 14.5 0.00 0.00 0.00 70 1014.5
20260905221606 27 50 3.2 14.5 0.00 0.00 0.00 71 1014.6
20260905221035 27 53 3.2 12.9 0.00 0.00 0.00 71 1014.5
20260905220535 27 264 3.2 12.9 0.00 0.00 0.00 71 1014.4
20260905220111 27 115 3.2 12.9 0.00 0.00 0.00 71 1014.5
20260905215535 27 88 3.2 12.9 0.00 0.00 0.00 71 1014.6
20260905215036 27 46 1.6 14.5 0.00 0.00 0.00 72 1014.6
20260905214606 28 13 3.2 17.7 0.00 0.00 0.00 72 1014.7
20260905214035 28 117 4.8 17.7 0.00 0.00 0.00 71 1014.6
20260905213536 28 78 3.2 14.5 0.00 0.00 0.00 71 1014.5
20260905213057 28 32 3.2 14.5 0.00 0.00 0.00 71 1014.5
20260905212536 28 130 4.8 14.5 0.00 0.00 0.00 70 1014.6
20260905212035 28 15 4.8 12.9 0.00 0.00 0.00 70 1014.6
20260905211558 28 360 3.2 14.5 0.00 0.00 0.00 70 1014.5
20260905211035 28 269 4.8 14.5 0.00 0.00 0.00 69 1014.6
20260905210534 28 40 3.2 14.5 0.00 0.00 0.00 70 1014.7
20260905205535 28 51 3.2 16.1 0.00 0.00 0.00 70 1014.7
20260905205036 29 40 3.2 14.5 0.00 0.00 0.00 69 1014.7
20260905204600 29 98 4.8 14.5 0.00 0.00 0.00 71 1014.7
20260905204036 30 298 4.8 14.5 0.00 0.00 0.00 68 1014.8
20260905203535 30 74 3.2 12.9 0.00 0.00 0.00 69 1014.8
20260905203103 29 46 1.6 12.9 0.00 0.00 0.00 71 1014.8
20260905202533 29 14 6.4 12.9 0.00 0.00 0.00 70 1014.8
20260905202035 29 9 4.8 12.9 0.00 0.00 0.00 71 1014.8
20260905201601 28 53 4.8 12.9 0.00 0.00 0.00 71 1014.7
20260905201035 29 34 3.2 12.9 0.00 0.00 0.00 71 1014.8
20260905200535 29 355 3.2 16.1 0.00 0.00 0.00 71 1014.7
20260905200100 29 53 4.8 17.7 0.00 0.00 0.00 69 1014.8
20260905195536 30 17 4.8 17.7 0.00 0.00 0.00 68 1014.7
20260905195035 30 51 3.2 16.1 0.00 0.00 0.00 68 1014.7
20260905194557 30 83 3.2 11.3 0.00 0.00 0.00 67 1014.7
20260905194035 30 360 3.2 12.9 0.00 0.00 0.00 68 1014.6
20260905193532 30 51 4.8 14.5 0.00 0.00 0.00 67 1014.7
20260905193059 30 18 4.8 14.5 0.00 0.00 0.00 67 1014.6
20260905192532 30 0 4.8 14.5 0.00 0.00 0.00 67 1014.7
20260905192036 30 338 6.4 12.9 0.00 0.00 0.00 66 1014.7
20260905191600 31 147 3.2 14.5 0.00 0.00 0.00 68 1014.8
20260905191035 30 352 3.2 14.5 0.00 0.00 0.00 68 1014.8
20260905190535 30 53 4.8 14.5 0.00 0.00 0.00 66 1014.8
20260905185536 31 321 3.2 14.5 0.00 0.00 0.00 66 1014.7
20260905185037 31 13 4.8 16.1 0.00 0.00 0.00 67 1014.8
20260905184608 31 30 3.2 16.1 0.00 0.00 0.00 66 1014.8
20260905184035 31 171 3.2 11.3 0.00 0.00 0.00 69 1014.8
20260905183535 31 0 1.6 16.1 0.00 0.00 0.00 68 1014.9
20260905183124 31 232 1.6 16.1 0.00 0.00 0.00 66 1014.8
20260905182535 32 20 1.6 12.9 0.00 0.00 0.00 65 1014.9
20260905182035 31 338 3.2 11.3 0.00 0.00 0.00 67 1014.8
20260905181604 31 263 1.6 12.9 0.00 0.00 0.00 68 1014.8
20260905181036 31 49 3.2 12.9 0.00 0.00 0.00 69 1014.7
20260905180536 30 59 3.2 12.9 0.00 0.00 0.00 71 1014.9
20260905180058 30 0 4.8 12.9 0.00 0.00 0.00 68 1014.7
20260905175536 31 54 4.8 12.9 0.00 0.00 0.00 68 1014.7
20260905175034 30 124 1.6 9.7 0.00 0.00 0.00 70 1014.7
20260905174605 30 0 1.6 9.7 0.00 0.00 0.00 68 1014.6
20260905174036 31 246 4.8 9.7 0.00 0.00 0.00 67 1014.6
20260905173536 31 309 1.6 8.0 0.00 0.00 0.00 67 1014.6
20260905173100 31 334 1.6 11.3 0.00 0.00 0.00 68 1014.7
20260905172535 31 209 1.6 11.3 0.00 0.00 0.00 69 1014.7
20260905172036 31 105 3.2 9.7 0.00 0.00 0.00 68 1014.7
20260905171604 31 67 3.2 16.1 0.00 0.00 0.00 68 1014.7
20260905171036 31 76 3.2 16.1 0.00 0.00 0.00 69 1014.8
20260905170535 31 67 4.8 12.9 0.00 0.00 0.00 68 1014.9
20260905170057 31 72 3.2 12.9 0.00 0.00 0.00 69 1014.9
20260905165535 31 89 3.2 14.5 0.00 0.00 0.00 69 1015.0
20260905165039 31 40 3.2 14.5 0.00 0.00 0.00 70 1015.0
20260905164606 31 49 3.2 11.3 0.00 0.00 0.00 69 1015.0
20260905164034 31 316 1.6 11.3 0.00 0.00 0.00 69 1015.1
20260905163535 31 278 3.2 11.3 0.00 0.00 0.00 68 1015.1
20260905163101 31 255 3.2 11.3 0.00 0.00 0.00 70 1015.1
20260905162536 30 78 1.6 12.9 0.00 0.00 0.00 71 1015.1
20260905162035 30 71 4.8 12.9 0.00 0.00 0.00 71 1015.1
20260905161559 30 276 3.2 16.1 0.00 0.00 0.00 71 1015.1
20260905161035 30 174 1.6 16.1 0.00 0.00 0.00 73 1015.2
20260905160537 30 35 3.2 16.1 0.00 0.00 0.00 72 1015.2
20260905160111 30 104 3.2 14.5 0.00 0.00 0.00 72 1015.1
20260905155535 29 69 4.8 14.5 0.00 0.00 0.00 72 1015.1
20260905155034 30 74 3.2 11.3 0.00 0.00 0.00 73 1015.1
20260905154603 29 78 4.8 11.3 0.00 0.00 0.00 73 1015.1
20260905154035 29 340 3.2 17.7 0.00 0.00 0.00 73 1015.0
20260905153534 28 119 3.2 17.7 0.00 0.00 0.00 74 1015.0
20260905153106 28 45 3.2 12.9 0.00 0.00 0.00 74 1015.0
20260905152535 28 48 3.2 11.3 0.00 0.00 0.00 76 1015.0
20260905152035 28 126 3.2 19.3 0.00 0.00 0.00 75 1014.8
20260905151553 28 55 4.8 19.3 0.00 0.00 0.00 76 1014.8
20260905151034 28 24 3.2 17.7 0.00 0.00 0.00 76 1014.8
20260905150535 27 123 4.8 17.7 0.00 0.00 0.00 77 1014.7
20260905150059 27 84 4.8 19.3 0.00 0.00 0.00 77 1014.7
20260905145535 27 332 6.4 19.3 0.00 0.00 0.00 77 1014.7
20260905145035 27 5 4.8 17.7 0.00 0.00 0.00 77 1014.7
20260905144557 27 143 4.8 16.1 0.00 0.00 0.00 77 1014.6
20260905144036 27 55 4.8 16.1 0.00 0.00 0.00 78 1014.7
20260905143535 27 24 6.4 16.1 0.00 0.00 0.00 77 1014.6
20260905143059 27 91 4.8 16.1 0.00 0.00 0.00 78 1014.7
20260905142535 27 29 3.2 16.1 0.00 0.00 0.00 77 1014.6
20260905142035 27 46 0.0 14.5 0.00 0.00 0.00 79 1014.6
20260905141600 27 28 4.8 14.5 0.00 0.00 0.00 78 1014.5
20260905141035 27 19 4.8 12.9 0.00 0.00 0.00 78 1014.3
20260905140536 27 36 0.0 12.9 0.00 0.00 0.00 79 1014.3
20260905140108 27 55 3.2 12.9 0.00 0.00 0.00 78 1014.2
20260905135534 27 80 3.2 11.3 0.00 0.00 0.00 79 1014.2
20260905135033 27 0 3.2 9.7 0.00 0.00 0.00 80 1014.2
20260905134556 27 71 1.6 8.0 0.00 0.00 0.00 80 1014.2
20260905134035 27 42 1.6 11.3 0.00 0.00 0.00 81 1014.2
20260905133536 27 53 1.6 11.3 0.00 0.00 0.00 82 1014.1
20260905133053 26 88 1.6 11.3 0.00 0.00 0.00 82 1014.2
20260905132535 26 0 3.2 9.7 0.00 0.00 0.00 84 1014.4
20260905132035 26 0 0.0 6.4 0.00 0.00 0.00 85 1014.5
20260905131609 26 314 0.0 8.0 0.00 0.00 0.00 86 1014.5
20260905131033 26 0 1.6 8.0 0.00 0.00 0.00 87 1014.2
20260905130532 25 92 3.2 9.7 0.00 0.00 0.00 88 1013.9
20260905130055 25 42 3.2 9.7 0.00 0.00 0.00 89 1014.0
20260905125531 25 34 0.0 4.8 0.00 0.00 0.00 90 1013.9
20260905125034 25 0 0.0 6.4 0.00 0.00 0.00 90 1013.8
20260905124558 25 55 0.0 6.4 0.00 0.00 0.00 90 1013.7
20260905124032 25 0 0.0 4.8 0.00 0.00 0.00 91 1013.7
20260905123532 25 0 0.0 3.2 0.00 0.00 0.00 91 1013.5
20260905123057 25 0 0.0 3.2 0.00 0.00 0.00 91 1013.5
20260905122531 24 0 0.0 1.6 0.00 0.00 0.00 91 1013.4
20260905122032 24 0 0.0 1.6 0.00 0.00 0.00 91 1013.3